This demonstration page uses our WeatherBlox Daily Observations layout. Learn more.

Left ArrowRight Arrow

Hourly Observations for January 24, 2016

Temp ( °F °C ) Dew Point ( °F °C ) Humidity (%) Winds ( mph kmh ) Pressure ( in mb ) Visibility ( mi km ) Precip ( " mm )
12:54 am 00:54 Clear with Mist and Fog 21 -6.1 20 -6.7 96 96 S 6 9 29.96 1014 4 6 0.00 0.00
1:54 am 01:54 Clear with Mist and Fog 21 -6.1 19 -7.2 92 92 S 7 11 29.94 1014 4 6 0.00 0.00
2:54 am 02:54 Clear with Mist and Fog 19 -7.2 17 -8.3 92 92 SSE 5 7 29.93 1014 4 6 0.00 0.00
3:54 am 03:54 Clear with Mist and Fog 20 -6.7 18 -7.8 92 92 SSE 5 7 29.91 1013 4 6 0.00 0.00
4:54 am 04:54 Clear with Mist and Fog 19 -7.2 17 -8.3 92 92 S 6 9 29.91 1013 4 6 0.00 0.00
5:54 am 05:54 Clear with Mist and Fog 21 -6.1 19 -7.2 92 92 S 5 7 29.89 1012 4 6 0.00 0.00
6:54 am 06:54 Clear with Mist and Fog 22 -5.6 19 -7.2 89 89 Calm 29.90 1012 5 8 0.00 0.00
7:54 am 07:54 Sunny with Mist and Fog 20 -6.7 18 -7.8 92 92 S 5 7 29.90 1013 3 5 0.00 0.00
8:54 am 08:54 Sunny with Mist and Fog 23 -5 20 -6.7 88 88 SSE 6 9 29.88 1012 4 6 0.00 0.00
9:54 am 09:54 Sunny with Mist and Fog 26 -3.3 23 -5 88 88 Calm 29.88 1012 4 6 0.00 0.00
10:54 am 10:54 Hazy 30 -1.1 24 -4.4 79 79 SSE 6 9 29.85 1011 5 8 0.00 0.00
11:54 am 11:54 Hazy 32 0 26 -3.3 79 79 S 5 7 29.83 1010 6 10 0.00 0.00
12:54 pm 12:54 Hazy 35 1.7 28 -2.2 76 76 SSE 5 7 29.80 1009 6 10 0.00 0.00
1:54 pm 13:54 Hazy 37 2.8 28 -2.2 70 70 Calm 29.76 1008 6 10 0.00 0.00
2:54 pm 14:54 Hazy 39 3.9 29 -1.7 67 67 ENE 8 13 29.73 1007 6 10 0.00 0.00
3:54 pm 15:54 Hazy 38 3.3 29 -1.7 70 70 ESE 10 17 29.73 1007 6 10 0.00 0.00
4:54 pm 16:54 Mostly Cloudy with Haze 36 2.2 29 -1.7 76 76 SE 7 11 29.76 1008 6 10 0.00 0.00
5:12 pm 17:12 Cloudy with Haze 36 2 28 -2 75 75 SE 6 9 29.74 1007 6 10 0.00 0.00
5:54 pm 17:54 Cloudy 34 1.1 28 -2.2 79 79 E 6 9 29.75 1007 7 11 0.00 0.00
6:06 pm 18:06 Cloudy 34 1.1 28 -2.2 79 79 E 6 9 29.77 1008 7 11 0.00 0.00
6:25 pm 18:25 Hazy 32 0 27 -2.8 82 82 ENE 6 9 29.77 1008 6 10 0.00 0.00
6:54 pm 18:54 Mostly Clear with Mist and Fog 31 -0.6 27 -2.8 85 85 E 5 7 29.75 1007 6 10 0.00 0.00
7:07 pm 19:07 Mostly Cloudy with Mist and Fog 30 -1.1 27 -2.8 88 88 ENE 5 7 29.77 1008 6 10 0.00 0.00
7:54 pm 19:54 Cloudy with Mist and Fog 32 0 29 -1.7 88 88 Calm 29.77 1008 5 8 0.00 0.00
8:54 pm 20:54 Cloudy with Mist and Fog 32 0 29 -1.7 88 88 NE 5 7 29.75 1007 5 8 0.00 0.00
9:54 pm 21:54 Cloudy with Mist and Fog 31 -0.6 28 -2.2 89 89 N 6 9 29.75 1007 5 8 0.00 0.00
10:29 pm 22:29 Partly Cloudy with Mist and Fog 28 -2.2 26 -3.3 92 92 N 8 13 29.77 1008 4 6 0.00 0.00
10:54 pm 22:54 Cloudy with Mist and Fog 30 -1.1 28 -2.2 92 92 N 7 11 29.74 1007 4 6 0.00 0.00
11:54 pm 23:54 Cloudy with Mist and Fog 30 -1.1 28 -2.2 92 92 NNE 8 13 29.72 1007 4 6 0.00 0.00

Powered by AerisWeather